Zurück zum Katalog

COSMOS 1226

AktivMilitärPO
NORAD 12091·PAYLOAD·🇷🇺 Russia

Gestartet Dec 10, 1980 von Plesetsk Cosmodrome

Loading…

Nächste Überflüge (nächste 24 Stunden)

TLE

AktuellSource: Space-Track

Epoche: Sep 14, 2026, 02:38 UTC

1 12091U 80099A   26257.11033626  .00000057  00000-0  43277-4 0  9992
2 12091  82.9393 298.0583 0033774 172.2550 215.4693 13.74728029294974

Verfolge COSMOS 1226 in Echtzeit mit AllMySat

Download on the App Store